Location: Unspecified
(0.0000°N, 0.0000°E)
Time: 17:11:40
(UTC+00:00)

HTV-X1 - Pass Details

Date: 13 May 2026
Orbit: 372 x 382 km, 51.6° (Epoch: 21 May)

Event Time Altitude Azimuth Distance (km) Brightness Sun altitude
Exits shadow 04:00:41 11° 114° (ESE) 1,309 ? -27.3°
Drops below altitude 10° 04:00:52 10° 116° (ESE) 1,375 ? -27.3°
Sets 04:03:08 0° 128° (SE) 2,248 ? -26.8°
